CW6261 Weather Reports


Display with metric or nautical units.
time (UTC)temp
F
wind
direction
speed
MPH
gust
MPH
rain 1hr
in
rain 24hr
in
rain mn
in
humidity
%
barometer
mb
20260903124702 79 199 3.0 8.0 0.00 0.00 0.00 85 101.2
20260903124202 79 202 2.0 5.0 0.00 0.00 0.00 86 101.2
20260903123702 79 200 3.0 6.0 0.00 0.00 0.00 86 101.2
20260903123202 79 163 1.0 4.0 0.00 0.00 0.00 86 101.2
20260903122702 79 211 5.0 6.0 0.00 0.00 0.00 86 101.2
20260903122202 79 216 4.0 7.0 0.00 0.00 0.00 86 101.2
20260903121702 79 232 3.0 9.0 0.00 0.00 0.00 86 101.2
20260903115702 79 210 2.0 5.0 0.00 0.00 0.00 86 101.1
20260903115201 79 237 2.0 7.0 0.00 0.00 0.00 86 101.1
20260903114702 79 196 3.0 8.0 0.00 0.00 0.00 86 101.1
20260903113202 79 196 6.0 7.0 0.00 0.00 0.00 86 101.2
20260903112702 79 232 2.0 5.0 0.00 0.00 0.00 85 101.2
20260903112202 79 186 2.0 8.0 0.00 0.00 0.00 85 101.2
20260903111701 79 193 7.0 8.0 0.00 0.00 0.00 86 101.1
20260903111202 79 230 2.0 7.0 0.00 0.00 0.00 86 101.1
20260903105702 79 192 2.0 10.0 0.00 0.00 0.00 86 101.1
20260903105202 79 202 2.0 6.0 0.00 0.00 0.00 86 101.1
20260903104701 79 233 4.0 11.0 0.00 0.00 0.00 86 101.1
20260903104202 79 232 3.0 7.0 0.00 0.00 0.00 85 101.1
20260903103702 79 255 2.0 7.0 0.00 0.00 0.00 86 101.1
20260903102702 79 197 7.0 10.0 0.00 0.00 0.00 86 101.1
20260903102202 79 241 4.0 12.0 0.00 0.00 0.00 86 101.1
20260903101702 79 234 2.0 11.0 0.00 0.00 0.00 86 101.1
20260903101202 79 185 2.0 7.0 0.00 0.00 0.00 86 101.1
20260903100701 79 208 2.0 6.0 0.00 0.00 0.00 86 101.1
20260903095702 79 173 3.0 8.0 0.00 0.00 0.00 85 101.1
20260903095202 79 208 4.0 7.0 0.00 0.00 0.00 85 101.1
20260903094702 79 215 5.0 7.0 0.00 0.00 0.00 85 101.1
20260903094201 79 195 6.0 7.0 0.00 0.00 0.00 85 101.1
20260903093701 79 238 3.0 6.0 0.00 0.00 0.00 85 101.1
20260903092702 79 201 2.0 7.0 0.00 0.00 0.00 84 101.2
20260903091703 79 240 3.0 7.0 0.00 0.00 0.00 84 101.2
20260903090702 79 198 4.0 6.0 0.00 0.00 0.00 84 101.2
20260903090204 79 192 2.0 9.0 0.00 0.00 0.00 83 101.1
20260903085701 80 193 3.0 5.0 0.00 0.00 0.00 83 101.1
20260903085202 80 280 6.0 7.0 0.00 0.00 0.00 83 101.1
20260903084702 80 272 4.0 6.0 0.00 0.00 0.00 83 101.1
20260903084202 80 236 4.0 7.0 0.00 0.00 0.00 82 101.1
20260903083702 80 194 2.0 9.0 0.00 0.00 0.00 82 101.1
20260903083202 80 200 6.0 7.0 0.00 0.00 0.00 82 101.2
20260903081702 80 250 7.0 8.0 0.00 0.00 0.00 82 101.2
20260903081203 80 176 6.0 9.0 0.00 0.00 0.00 81 101.2
20260903080702 80 184 5.0 7.0 0.00 0.00 0.00 81 101.2
20260903080202 80 204 3.0 6.0 0.00 0.00 0.00 80 101.2
20260903075702 80 234 2.0 5.0 0.00 0.00 0.00 80 101.2
20260903075202 80 217 2.0 6.0 0.00 0.00 0.00 80 101.2
20260903074203 80 189 4.0 7.0 0.00 0.00 0.00 79 101.2
20260903073702 80 186 3.0 6.0 0.00 0.00 0.00 79 101.2
20260903073201 80 182 4.0 5.0 0.00 0.00 0.00 78 101.2
20260903072702 81 194 2.0 8.0 0.00 0.00 0.00 78 101.2
20260903071701 81 188 3.0 5.0 0.00 0.00 0.00 77 101.2
20260903070702 81 186 2.0 10.0 0.00 0.00 0.00 76 101.2
20260903070202 81 185 3.0 6.0 0.00 0.00 0.00 75 101.2
20260903065202 81 185 4.0 6.0 0.00 0.00 0.00 74 101.2
20260903064704 81 201 5.0 6.0 0.00 0.00 0.00 74 101.2
20260903064202 81 205 4.0 11.0 0.00 0.00 0.00 74 101.2
20260903063703 81 188 7.0 8.0 0.00 0.00 0.00 73 101.2
20260903062202 81 190 6.0 6.0 0.00 0.00 0.00 74 101.2
20260903061702 81 188 3.0 5.0 0.00 0.00 0.00 74 101.2
20260903061202 81 197 3.0 4.0 0.00 0.00 0.00 74 101.2
20260903060702 81 183 4.0 6.0 0.00 0.00 0.00 75 101.2
20260903055702 80 223 2.0 5.0 0.00 0.00 0.00 75 101.2
20260903054703 80 71 1.0 4.0 0.00 0.00 0.00 76 101.2
20260903054202 80 200 5.0 5.0 0.00 0.00 0.00 76 101.2
20260903053202 80 189 2.0 8.0 0.00 0.00 0.00 77 101.2
20260903052702 80 302 2.0 6.0 0.00 0.00 0.00 77 101.2
20260903052202 80 184 2.0 7.0 0.00 0.00 0.00 77 101.2
20260903051702 80 195 1.0 5.0 0.00 0.00 0.00 77 101.2
20260903051203 80 126 0.0 6.0 0.00 0.00 0.00 77 101.2
20260903050702 80 158 2.0 4.0 0.00 0.00 0.00 77 101.2
20260903045703 80 186 3.0 3.0 0.00 0.00 0.00 77 101.2
20260903045202 80 182 0.0 2.0 0.00 0.00 0.00 77 101.2
20260903044702 80 153 0.0 1.0 0.00 0.00 0.00 76 101.2
20260903044201 80 140 1.0 2.0 0.00 0.00 0.00 76 101.2
20260903043702 80 212 1.0 2.0 0.00 0.00 0.00 76 101.2
20260903043203 80 162 1.0 5.0 0.00 0.00 0.00 75 101.2
20260903042702 80 168 0.0 6.0 0.00 0.00 0.00 74 101.2
20260903042202 81 152 0.0 2.0 0.00 0.00 0.00 73 101.2
20260903041702 81 204 4.0 4.0 0.00 0.00 0.00 73 101.2
20260903041202 81 217 3.0 3.0 0.00 0.00 0.00 72 101.2
20260903040702 81 228 0.0 4.0 0.00 0.00 0.00 71 101.2
20260903040202 81 92 1.0 4.0 0.00 0.00 0.00 70 101.2
20260903035702 82 117 1.0 2.0 0.00 0.00 0.00 70 101.2
20260903035202 82 36 0.0 5.0 0.00 0.00 0.00 70 101.2
20260903034702 82 195 3.0 3.0 0.00 0.00 0.00 69 101.2
20260903034202 82 108 2.0 11.0 0.00 0.00 0.00 68 101.2
20260903033202 84 149 2.0 3.0 0.00 0.00 0.00 62 101.2
20260903032702 84 95 1.0 3.0 0.00 0.00 0.00 62 101.2
20260903032202 85 111 2.0 3.0 0.00 0.00 0.00 61 101.2
20260903031702 85 145 1.0 4.0 0.00 0.00 0.00 60 101.1
20260903031202 86 54 1.0 2.0 0.00 0.00 0.00 58 101.1
20260903030702 86 105 1.0 2.0 0.00 0.00 0.00 56 101.1
20260903030202 86 113 1.0 4.0 0.00 0.00 0.00 55 101.1
20260903025703 87 105 1.0 1.0 0.00 0.00 0.00 54 101.1
20260903025202 87 119 1.0 2.0 0.00 0.00 0.00 54 101.1
20260903024703 87 162 1.0 2.0 0.00 0.00 0.00 54 101.1
20260903023702 87 202 0.0 1.0 0.00 0.00 0.00 54 101.1
20260903023202 87 239 0.0 1.0 0.00 0.00 0.00 54 101.0
20260903022702 87 209 0.0 2.0 0.00 0.00 0.00 53 101.0
20260903022202 88 217 0.0 2.0 0.00 0.00 0.00 53 101.0
20260903021701 88 224 0.0 0.0 0.00 0.00 0.00 53 101.0
20260903021202 88 230 0.0 1.0 0.00 0.00 0.00 53 101.0
20260903020702 88 217 0.0 1.0 0.00 0.00 0.00 54 101.0
20260903015702 88 205 0.0 1.0 0.00 0.00 0.00 53 101.0
20260903015202 88 248 0.0 1.0 0.00 0.00 0.00 53 101.0
20260903014702 88 185 0.0 1.0 0.00 0.00 0.00 52 101.0
20260903014202 88 220 0.0 2.0 0.00 0.00 0.00 52 101.0
20260903013703 88 205 0.0 3.0 0.00 0.00 0.00 52 101.0
20260903013202 89 226 0.0 2.0 0.00 0.00 0.00 51 101.0
20260903012702 89 255 0.0 1.0 0.00 0.00 0.00 51 101.0
20260903012202 89 227 0.0 1.0 0.00 0.00 0.00 50 101.0
20260903011202 89 315 0.0 0.0 0.00 0.00 0.00 51 101.0
20260903010702 89 284 0.0 1.0 0.00 0.00 0.00 52 101.0
20260903010201 89 195 0.0 0.0 0.00 0.00 0.00 52 101.0
20260903005202 90 242 0.0 1.0 0.00 0.00 0.00 50 101.0
20260903004702 90 286 1.0 2.0 0.00 0.00 0.00 50 101.0
20260903004202 90 224 0.0 3.0 0.00 0.00 0.00 51 101.0
20260903003702 90 195 1.0 2.0 0.00 0.00 0.00 50 101.0
20260903003202 90 240 0.0 4.0 0.00 0.00 0.00 50 101.0
20260903002702 90 181 1.0 4.0 0.00 0.00 0.00 49 101.0
20260903002203 91 185 2.0 4.0 0.00 0.00 0.00 48 101.0
20260903001702 92 181 4.0 6.0 0.00 0.00 0.00 47 101.0
20260903001202 93 186 2.0 7.0 0.00 0.00 0.00 45 101.0
20260903000702 93 184 1.0 1.0 0.00 0.00 0.00 43 101.0
20260903000204 93 156 1.0 5.0 0.00 0.00 0.00 44 101.0
20260902235702 93 192 5.0 12.0 0.00 0.00 0.00 44 101.0
20260902234703 94 203 0.0 2.0 0.00 0.00 0.00 40 101.0
20260902234202 94 292 0.0 3.0 0.00 0.00 0.00 40 101.0
20260902233702 95 316 3.0 5.0 0.00 0.00 0.00 40 101.0
20260902233202 94 341 1.0 3.0 0.00 0.00 0.00 40 101.0
20260902232202 94 31 0.0 4.0 0.00 0.00 0.00 41 101.0
20260902231702 93 130 0.0 2.0 0.00 0.00 0.00 43 101.0
20260902231202 93 286 1.0 5.0 0.00 0.00 0.00 43 101.0
20260902230702 93 13 3.0 7.0 0.00 0.00 0.00 42 101.0
20260902230201 95 6 4.0 5.0 0.00 0.00 0.00 39 101.0
20260902225702 96 356 4.0 5.0 0.00 0.00 0.00 38 101.0
20260902225202 97 336 6.0 9.0 0.00 0.00 0.00 36 101.0
20260902224702 98 321 2.0 5.0 0.00 0.00 0.00 36 101.0
20260902224202 97 315 2.0 4.0 0.00 0.00 0.00 37 101.0
20260902223702 98 309 3.0 6.0 0.00 0.00 0.00 37 101.0
20260902223203 98 280 6.0 6.0 0.00 0.00 0.00 36 101.0
20260902222702 97 223 1.0 2.0 0.00 0.00 0.00 36 101.0
20260902222202 98 307 0.0 2.0 0.00 0.00 0.00 36 101.0
20260902221702 100 321 0.0 4.0 0.00 0.00 0.00 34 101.0
20260902221203 98 20 0.0 3.0 0.00 0.00 0.00 35 101.0
20260902220702 96 229 2.0 2.0 0.00 0.00 0.00 36 101.0
20260902220202 95 316 0.0 5.0 0.00 0.00 0.00 38 101.0
20260902215203 96 236 0.0 1.0 0.00 0.00 0.00 38 101.0
20260902214703 96 321 0.0 1.0 0.00 0.00 0.00 38 101.0
20260902214202 96 230 0.0 2.0 0.00 0.00 0.00 38 101.0
20260902213702 96 33 0.0 1.0 0.00 0.00 0.00 38 101.0
20260902212702 96 247 0.0 2.0 0.00 0.00 0.00 38 101.0
20260902212204 97 246 1.0 4.0 0.00 0.00 0.00 37 101.0
20260902211202 98 223 1.0 3.0 0.00 0.00 0.00 36 101.0
20260902210702 98 261 2.0 3.0 0.00 0.00 0.00 37 101.0
20260902205702 98 211 2.0 3.0 0.00 0.00 0.00 37 101.0
20260902204702 97 244 1.0 3.0 0.00 0.00 0.00 36 101.0
20260902203702 97 239 2.0 5.0 0.00 0.00 0.00 36 101.0
20260902203202 97 244 4.0 4.0 0.00 0.00 0.00 37 101.1
20260902202702 97 213 3.0 3.0 0.00 0.00 0.00 37 101.1
20260902201202 97 226 2.0 3.0 0.00 0.00 0.00 37 101.1
20260902200702 97 195 2.0 4.0 0.00 0.00 0.00 37 101.0
20260902200202 97 209 3.0 3.0 0.00 0.00 0.00 37 101.0
20260902195202 99 232 3.0 3.0 0.00 0.00 0.00 35 101.0
20260902194702 100 216 1.0 4.0 0.00 0.00 0.00 35 101.0
20260902194202 99 189 1.0 5.0 0.00 0.00 0.00 36 101.0
20260902193702 98 198 2.0 6.0 0.00 0.00 0.00 37 101.0
20260902193202 97 178 0.0 3.0 0.00 0.00 0.00 37 101.2
20260902192702 95 241 0.0 2.0 0.00 0.00 0.00 38 101.2
20260902192202 94 202 2.0 4.0 0.00 0.00 0.00 40 101.2
20260902191702 95 297 1.0 3.0 0.00 0.00 0.00 40 101.2
20260902191202 96 339 0.0 2.0 0.00 0.00 0.00 38 101.2
20260902190202 98 139 0.0 3.0 0.00 0.00 0.00 37 101.1
20260902185702 96 339 2.0 3.0 0.00 0.00 0.00 38 101.1
20260902185203 96 235 1.0 5.0 0.00 0.00 0.00 38 101.1
20260902184702 97 149 1.0 2.0 0.00 0.00 0.00 38 101.1
20260902183702 97 253 2.0 5.0 0.00 0.00 0.00 38 101.1
20260902182702 94 259 3.0 5.0 0.00 0.00 0.00 41 101.3
20260902182202 96 222 3.0 5.0 0.00 0.00 0.00 39 101.3
20260902181702 98 180 0.0 2.0 0.00 0.00 0.00 38 101.3
20260902181202 97 244 2.0 2.0 0.00 0.00 0.00 38 101.3
20260902180703 97 359 0.0 6.0 0.00 0.00 0.00 38 101.3
20260902180202 94 172 1.0 1.0 0.00 0.00 0.00 40 101.3
20260902175703 94 229 0.0 3.0 0.00 0.00 0.00 40 101.3
20260902175202 95 196 4.0 6.0 0.00 0.00 0.00 40 101.3
20260902173203 96 290 3.0 6.0 0.00 0.00 0.00 39 101.4
20260902172702 94 236 1.0 3.0 0.00 0.00 0.00 41 101.4
20260902172203 94 324 6.0 6.0 0.00 0.00 0.00 41 101.4
20260902171202 93 277 4.0 5.0 0.00 0.00 0.00 42 101.4
20260902170702 94 259 5.0 6.0 0.00 0.00 0.00 41 101.4
20260902165702 92 293 3.0 6.0 0.00 0.00 0.00 43 101.4
20260902164702 92 257 2.0 5.0 0.00 0.00 0.00 43 101.4
20260902164202 92 260 3.0 9.0 0.00 0.00 0.00 44 101.4
20260902163702 92 239 3.0 8.0 0.00 0.00 0.00 44 101.4
20260902163202 91 232 2.0 6.0 0.00 0.00 0.00 45 101.4
20260902161702 91 251 2.0 6.0 0.00 0.00 0.00 46 101.4
20260902161202 91 303 1.0 5.0 0.00 0.00 0.00 46 101.4
20260902160702 90 277 3.0 5.0 0.00 0.00 0.00 47 101.4
20260902160203 90 244 7.0 7.0 0.00 0.00 0.00 46 101.4
20260902155701 90 234 3.0 5.0 0.00 0.00 0.00 47 101.4
20260902155202 89 252 2.0 5.0 0.00 0.00 0.00 47 101.4
20260902154702 89 282 5.0 6.0 0.00 0.00 0.00 48 101.4
20260902154202 88 224 2.0 2.0 0.00 0.00 0.00 49 101.4
20260902153702 88 286 2.0 5.0 0.00 0.00 0.00 49 101.4
20260902153202 89 284 3.0 5.0 0.00 0.00 0.00 49 101.4
20260902152702 88 255 2.0 5.0 0.00 0.00 0.00 49 101.4
20260902152204 88 257 2.0 4.0 0.00 0.00 0.00 51 101.4
20260902151703 87 333 1.0 6.0 0.00 0.00 0.00 52 101.4
20260902151202 87 230 2.0 5.0 0.00 0.00 0.00 54 101.4
20260902150702 86 225 0.0 2.0 0.00 0.00 0.00 55 101.4
20260902150202 85 224 0.0 5.0 0.00 0.00 0.00 57 101.4
20260902145702 85 218 4.0 6.0 0.00 0.00 0.00 58 101.4
20260902145202 85 9 2.0 10.0 0.00 0.00 0.00 58 101.4
20260902144702 85 242 2.0 6.0 0.00 0.00 0.00 58 101.4
20260902144202 84 287 5.0 6.0 0.00 0.00 0.00 60 101.4
20260902143703 84 235 3.0 5.0 0.00 0.00 0.00 61 101.4
20260902143202 84 224 3.0 5.0 0.00 0.00 0.00 61 101.4
20260902142202 84 232 3.0 5.0 0.00 0.00 0.00 62 101.4
20260902141202 83 275 2.0 7.0 0.00 0.00 0.00 64 101.4
20260902140702 82 246 1.0 4.0 0.00 0.00 0.00 64 101.4
20260902140202 82 246 2.0 5.0 0.00 0.00 0.00 65 101.4
20260902135202 81 180 2.0 4.0 0.00 0.00 0.00 68 101.4
20260902134702 81 253 2.0 4.0 0.00 0.00 0.00 69 101.4
20260902134202 80 236 4.0 4.0 0.00 0.00 0.00 70 101.4
20260902133702 80 251 2.0 4.0 0.00 0.00 0.00 70 101.4
20260902133202 80 251 2.0 4.0 0.00 0.00 0.00 71 101.4
20260902132202 79 222 1.0 4.0 0.00 0.00 0.00 72 101.4
20260902131702 79 250 2.0 3.0 0.00 0.00 0.00 72 101.4
20260902130702 78 227 1.0 2.0 0.00 0.00 0.00 73 101.3
20260902130202 77 256 0.0 2.0 0.00 0.00 0.00 75 101.3
20260902125702 77 239 1.0 2.0 0.00 0.00 0.00 76 101.3
20260902125201 76 227 1.0 2.0 0.00 0.00 0.00 77 101.3